[Date Prev][Date Next][Thread Prev][Thread Next] - [Date Index][Thread Index][Author Index]
2 Line ISS Keps 3-17
- Subject: [sarex] 2 Line ISS Keps 3-17
- From: "Dave Larsen Ph.D." <doc@xxxxxxxxxxx>
- Date: Sun, 16 Mar 2003 23:55:07 -0800
ISS
1 25544U 98067A 03076.18310128 .00026734 00000-0 34397-3 0 7900
2 25544 51.6356 122.3283 0007892 337.3744 87.9866 15.58833214246653
----
Via the sarex mailing list at AMSAT.ORG courtesy of AMSAT-NA.
To unsubscribe, send "unsubscribe sarex" to Majordomo@amsat.org
AMSAT Home